Regional Weather Roundup
Issued by NWS State College, PA

Home | Current Version | Previous Version | Graphics & Text | Print | Product List | Glossary Off
Versions: 1 2 3 4 5 6 7 8 9 10 11 12 13 14 15 16 17 18 19 20 21 22 23 24 25 26 27 28 29 30 31 32 33 34 35 36 37 38 39 40 41 42 43 44 45 46 47 48 49 50

000
ASUS41 KCTP 310303
RWRCTP

REGIONAL WEATHER ROUNDUP
NATIONAL WEATHER SERVICE STATE COLLEGE PA
1100 PM EDT THU JUL 30 2015

Note: "fair" indicates few or no clouds below 12,000 feet with no
significant weather and/or obstructions to visibility.

* = STATION THAT DOES NOT REPORT PRECIPITATION /E.G. RAIN...SNOW...ETC/
    THUNDER OR FOG.

PAZ002>004-007>009-013>016-020>023-029>032-310400-
WESTERN PENNSYLVANIA

CITY           SKY/WX    TMP DP  RH WIND       PRES   REMARKS
ERIE           MOCLDY    73  59  61 SW7       29.93R
MEADVILLE      PTCLDY    70  56  61 SW5       29.98S
FRANKLIN*      MOCLDY    66  54  63 SW5       30.00F
NEW CASTLE     FAIR      65  61  87 CALM      29.99S
BEAVER COUNTY  NOT AVBL
BUTLER*        PTCLDY    66  57  72 CALM      30.01S
PITTSBURGH INT PTCLDY    74  57  55 W5        30.00R
PITTSBURGH     MOCLDY    74  53  48 W8        29.99S
INDIANA*       MOCLDY    72  63  73 CALM      30.03S
LATROBE        NOT AVBL
WASHINGTON CO* NOT AVBL
$$

PAZ004>006-010>012-017>019-024>028-033>037-041-042-045-046-049>053-310400-
CENTRAL PENNSYLVANIA

CITY           SKY/WX    TMP DP  RH WIND       PRES   REMARKS
BRADFORD       CLEAR     65  53  65 SW3       29.99S
DUBOIS         CLEAR     64  53  67 SW5       29.99S
CLEARFIELD     CLEAR     71  53  52 W5        29.99R
JOHNSTOWN      MOCLDY    70  54  56 W8        30.03R
ALTOONA        MOCLDY    68  61  78 NW3       30.00R
STATE COLLEGE  CLEAR     74  55  52 CALM      29.97S
WILLIAMSPORT   CLEAR     70  61  73 W5        29.90R
SELINSGROVE    CLEAR     66  64  93 CALM      29.92R
FT INDIANTOWN  PTCLDY    79  61  54 W8        29.90R
CAPITAL CITY   PTCLDY    75  62  64 W9        29.90R
HARRISBURG     PTCLDY    75  64  68 NW7       29.89R
YORK           PTCLDY    68  65  90 W3        29.91R
$$

PAZ038>040-043-044-047-048-054-055-060>062-067>071-310400-
EASTERN PENNSYLVANIA

CITY           SKY/WX    TMP DP  RH WIND       PRES   REMARKS
SCRANTON       PTCLDY    71  63  75 E5        29.90R
MOUNT POCONO   MOCLDY    66  61  84 NW5       29.94S
ALLENTOWN      CLEAR     72  68  87 W3        29.87R
QUAKERTOWN*    CLEAR     72  72 100 CALM      29.89R
READING        PTCLDY    77  64  64 W8        29.87S
LANCASTER      PTCLDY    73  65  75 W7        29.89S
COATESVILLE    FOG       72  72 100 W3        29.91S VSB<1/4
POTTSTOWN      CLEAR     71  71 100 CALM      29.89S FOG
BLUE BELL      PTCLDY    73  72  94 CALM      29.87S
DOYLESTOWN     CLEAR     73  72  96 CALM      29.87R
WILLOW GROVE   NOT AVBL
NORTH PHILA    PTCLDY    78  71  79 SW7       29.88R
PHILADELPHIA   MOCLDY    78  74  87 SW9       29.87S
$$



USA.gov is the U.S. government's official web portal to all federal, state and local government web resources and services.